Location: Grange Verzio
(44.5000°N, 6.9833°E)
Time: 15:05:55
(UTC+00:00)

ONEWEB-0679 - Visible Passes

Search period start: 23 February 2024 00:00
Search period end: 04 March 2024 00:00
Orbit: 1196 x 1199 km, 87.9° (Epoch: 23 February)

Date Brightness Start Highest point End Pass type
(mag) Time Alt. Az. Time Alt. Az. Time Alt. Az.
23 Feb ? 02:46:08 10° N 02:53:05 45° E 02:59:58 10° SSE visible
23 Feb ? 04:35:53 10° NNW 04:42:23 37° W 04:48:53 10° SW visible
24 Feb ? 02:28:57 10° NNE 02:35:38 37° E 02:42:15 10° SE visible
24 Feb ? 04:18:21 10° NNW 04:25:10 44° W 04:31:58 10° SSW visible
25 Feb ? 02:11:48 10° NNE 02:18:07 30° ENE 02:23:02 15° SE visible
25 Feb ? 04:00:51 10° N 04:07:53 54° W 04:12:17 24° SSW visible
26 Feb ? 01:54:39 10° NNE 02:00:30 25° ENE 02:03:59 18° ESE visible
26 Feb ? 03:43:19 10° N 03:50:32 65° W 03:53:19 39° SSW visible
26 Feb ? 05:36:23 10° NW 05:38:29 11° WNW 05:40:35 10° W visible
26 Feb ? 17:58:46 10° WNW 18:00:02 10° WNW 18:01:19 10° NW visible
27 Feb ? 01:37:34 10° NNE 01:42:49 21° ENE 01:45:33 17° E visible
27 Feb ? 03:25:47 10° N 03:33:06 78° W 03:34:55 54° SSW visible
27 Feb ? 05:17:40 10° NW 05:21:17 15° WNW 05:24:16 11° W visible
27 Feb ? 17:38:53 10° W 17:42:12 13° WNW 17:45:33 10° NW visible
28 Feb ? 01:20:37 10° NNE 01:25:03 17° ENE 01:27:20 15° E visible
28 Feb ? 03:08:14 10° N 03:15:35 87° E 03:16:42 68° S visible
28 Feb ? 04:59:27 10° NNW 05:04:01 18° WNW 05:06:05 16° W visible
29 Feb ? 01:03:53 10° NE 01:07:12 13° ENE 01:09:13 12° E visible
29 Feb ? 02:50:41 10° N 02:58:00 73° E 02:58:36 70° ESE visible
29 Feb ? 04:41:23 10° NNW 04:46:40 22° WNW 04:47:59 21° W visible
01 Mar ? 00:48:09 10° NE 00:49:15 10° ENE 00:50:20 10° ENE visible
01 Mar ? 02:33:07 10° N 02:40:21 61° E 02:40:33 60° E visible
01 Mar ? 04:23:24 10° NNW 04:29:15 27° WNW 04:29:57 27° W visible
02 Mar ? 02:15:33 10° N 02:22:32 50° E 02:22:32 50° E visible
02 Mar ? 04:05:28 10° NNW 04:11:45 33° WNW 04:11:56 33° W visible
03 Mar ? 01:57:59 10° NNE 02:04:31 41° ENE 02:04:31 41° ENE visible
03 Mar ? 03:47:32 10° NNW 03:53:55 40° WNW 03:53:55 40° WNW visible
